Temperature
16 17 17 17 17 17 17 17 17 17 17 17 17 17 17 17 16 16 16 16 16 16 16 16 16 16 16 16 15 15 15 15 15 15 15 15 15 15 15 15 15 15 15
17 17 17 17 17 17 17 17 17 17 17 17 17 17 17 16 16 16 16 16 16 16 16 16 16 16 15 15 15 15 15 15 15 15 15 15 15 15 15 15 15 15 15
16 16 17 17 17 17 17 17 17 17 17 17 17 17 16 16 16 16 16 16 16 16 16 16 16 15 15 15 15 15 15 15 15 15 15 15 14 14 15 15 14 15 14
16 16 16 17 17 17 17 17 17 17 17 16 16 16 16 16 16 16 16 15 15 16 15 15 15 15 15 15 15 15 15 15 15 15 14 14 14 14 14 14 14 14 14
16 16 16 16 17 17 17 16 16 16 16 16 16 16 16 16 16 16 16 15 15 15 15 15 15 15 15 15 15 15 14 14 14 14 14 14 14 14 14 14 14 14 14
16 16 16 16 16 16 16 16 16 16 16 16 16 16 16 16 16 16 15 15 15 15 15 15 15 15 15 15 15 15 14 14 14 14 14 14 14 14 14 14 14 14 14
16 16 16 16 16 16 16 16 16 16 16 16 16 16 16 16 16 16 15 15 15 15 15 15 15 15 15 15 15 15 14 14 14 14 14 14 14 14 14 14 14 14 14
15 15 15 15 16 16 16 16 16 16 16 16 15 15 15 15 15 15 15 15 15 15 15 15 15 15 15 15 15 14 14 14 14 14 14 14 14 14 14 14 14 14 14
15 15 15 15 15 15 15 15 15 15 15 15 15 15 15 15 15 15 15 15 15 15 15 15 15 15 15 15 15 14 14 14 14 14 14 14 14 14 14 14 14 14 14
15 15 15 15 15 15 15 15 15 15 15 15 15 15 15 15 15 15 15 15 15 15 15 15 15 15 14 14 14 14 14 14 14 14 14 14 14 14 14 14 14 14 14
14 14 15 15 15 15 15 15 15 15 15 15 15 15 15 15 15 15 15 15 15 15 15 15 14 14 14 14 14 14 14 14 14 14 14 14 14 14 14 14 14 14 14
14 14 14 14 14 14 15 14 14 15 15 15 15 15 15 15 15 15 15 15 15 14 14 14 14 14 14 14 14 14 14 14 14 13 14 14 14 14 14 14 14 14 14
14 14 14 14 14 14 14 14 14 14 14 14 14 14 14 14 14 14 14 14 14 14 14 14 14 14 14 14 14 14 13 13 13 13 13 13 13 13 14 14 14 14 14
14 14 14 14 14 14 14 14 14 14 14 14 14 14 14 14 14 14 14 14 14 14 14 14 14 14 14 13 13 13 13 13 13 13 13 13 13 13 13 13 13 13 13
13 14 14 14 14 14 14 14 14 14 14 14 14 14 14 14 14 14 14 14 13 13 13 13 13 13 13 13 13 13 13 13 13 13 13 13 13 13 13 13 13 13 13
13 13 13 13 13 14 14 14 14 14 14 13 13 13 13 13 13 13 13 13 13 13 13 13 13 13 13 13 13 13 13 13 13 13 13 13 13 13 13 13 13 13 13
13 13 13 13 13 13 13 13 13 13 13 13 13 13 13 13 13 13 13 13 13 13 12 12 12 12 12 12 12 12 12 12 12 12 12 12 12 13 13 12 13 13 12
13 13 13 13 13 13 13 13 13 13 13 13 12 12 12 12 12 12 12 12 12 12 12 12 12 12 12 12 12 12 12 12 12 12 12 12 12 12 12 12 12 12 12
12 12 12 12 12 12 12 12 12 12 12 12 12 12 12 12 12 12 12 12 12 12 12 12 11 11 12 12 12 12 12 12 12 12 12 12 12 12 12 12 12 12 12
12 12 12 12 12 12 12 12 12 12 12 11 11 11 11 11 11 11 11 11 11 11 11 11 11 11 11 11 11 11 11 11 11 11 11 11 11 11 11 11 11 11 11
11 11 11 12 12 12 12 12 11 11 11 11 11 11 11 11 11 11 11 11 11 11 11 10 10 10 10 10 11 11 11 11 11 11 11 11 11 11 11 11 11 11 11
11 11 11 11 11 11 11 11 11 11 11 11 11 10 10 10 10 10 10 10 10 10 10 10 10 10 10 10 10 9 10 10 10 10 10 10 10 10 10 10 10 10 10
11 11 11 11 11 11 11 11 11 10 10 10 10 10 10 10 10 10 10 10 10 10 10 10 9 9 9 9 9 8 8 9 9 10 10 10 10 10 10 10 10 10 10
11 11 10 10 10 10 10 10 10 10 10 10 10 10 10 10 10 10 10 10 10 9 9 9 9 9 9 9 8 8 8 8 8 8 9 9 9 9 9 9 9 9 9
11 11 10 10 10 10 10 10 10 10 10 9 9 9 9 9 9 9 9 9 9 9 9 9 9 9 8 8 8 8 8 8 7 7 7 8 9 9 8 8 8 8 8
10 10 10 10 10 10 9 9 9 9 9 9 9 9 9 9 9 9 9 9 9 9 9 9 8 8 8 8 8 8 7 7 7 7 7 7 8 8 8 8 8 8 8
Wind_Speed
3 6 10 10 11 12 12 12 11 11 10 10 10 10 10 9 8 8 8 7 7 7 7 7 7 7 8 8 8 8 9 9 10 9 9 9 9 9 9 9 9 8 9
6 8 11 11 11 12 12 11 11 10 9 9 9 9 9 8 8 7 7 7 6 6 6 6 6 6 6 6 6 7 7 7 7 7 7 7 8 8 8 8 7 7 8
7 9 10 11 11 11 11 11 10 10 9 8 8 8 8 7 7 6 6 6 5 5 5 5 5 5 5 5 5 5 5 4 4 4 4 4 5 6 7 7 7 7 7
8 9 10 12 12 12 11 11 10 9 8 8 7 7 6 6 6 5 5 5 4 4 4 4 3 3 3 3 3 3 2 2 3 3 2 2 2 4 5 5 5 5 5
7 8 10 12 12 11 11 10 9 8 7 7 6 6 5 5 4 4 4 4 4 3 3 3 2 2 2 2 2 1 0 1 1 2 2 3 3 4 4 4 4 4 4
6 8 10 11 11 10 10 9 9 8 7 6 6 5 4 4 4 3 3 3 3 3 2 2 2 1 1 2 2 1 1 1 0 1 2 3 4 4 4 4 4 4 3
6 7 9 10 10 10 9 8 7 7 6 5 5 4 4 3 3 3 3 3 3 2 2 2 2 2 2 3 3 3 3 2 1 2 3 3 5 5 4 5 5 5 4
7 7 8 9 9 9 8 7 6 6 5 5 4 3 3 2 2 2 2 3 3 3 3 3 3 3 3 4 4 4 4 4 3 3 3 4 6 6 6 6 6 5 5
8 7 7 7 7 7 7 6 5 5 4 3 3 3 2 2 1 1 2 2 3 3 4 4 4 4 5 5 6 6 5 5 5 5 5 6 7 8 7 7 7 7 7
6 6 6 6 6 5 5 5 5 4 4 3 2 2 1 1 1 1 1 2 3 3 4 5 5 6 6 7 7 7 6 6 6 6 6 7 9 9 9 8 8 8 8
6 5 5 6 5 4 4 4 4 4 4 3 2 2 2 1 0 1 1 2 3 3 4 5 5 6 7 8 9 9 7 6 6 7 8 9 10 10 10 10 10 9 9
4 3 4 5 5 5 4 4 4 3 4 3 3 2 2 1 1 1 2 2 3 3 4 5 6 6 6 6 8 8 6 7 7 7 9 11 11 11 11 11 11 11 10
3 3 3 4 5 5 4 4 4 4 4 4 4 3 2 2 2 2 2 2 3 3 3 4 5 4 5 5 6 6 7 7 7 8 9 11 12 12 11 11 11 11 11
4 3 3 3 4 4 4 4 4 4 3 3 4 4 3 2 2 2 1 2 2 3 3 3 3 4 5 6 6 6 6 5 6 8 9 10 12 12 12 11 11 11 11
4 3 2 3 3 4 4 4 4 4 3 3 4 4 3 2 1 2 2 2 3 3 3 3 3 4 4 5 6 6 6 6 6 7 7 10 11 12 12 12 12 12 11
3 2 2 3 3 4 3 3 3 3 3 4 4 4 4 2 2 1 2 2 3 3 3 3 3 3 4 4 4 5 6 6 6 6 7 8 9 10 12 12 13 13 12
3 2 2 2 3 3 3 3 3 3 4 4 4 5 5 4 3 2 2 2 3 4 4 3 3 3 3 3 4 5 4 4 4 5 7 7 7 9 10 11 12 12 13
4 3 2 2 3 3 3 3 3 3 4 4 4 5 6 6 4 3 2 2 4 4 3 2 2 2 3 3 4 4 4 4 4 5 5 5 6 6 8 10 10 11 11
3 3 2 2 3 3 3 3 3 3 4 4 4 5 5 6 6 3 2 3 3 2 2 2 2 2 3 4 4 4 4 4 4 4 3 4 4 5 6 7 9 10 10
3 2 2 2 2 2 3 3 3 3 3 4 4 4 5 5 6 4 3 3 3 2 2 2 2 2 2 3 4 4 4 4 3 3 3 3 3 4 4 4 5 6 8
2 1 1 1 1 2 2 2 1 2 2 2 3 4 4 5 5 4 3 3 3 2 2 3 2 3 2 2 2 3 4 3 3 3 2 2 2 3 3 3 3 4 5
2 1 1 1 0 1 0 0 0 1 1 1 2 4 5 5 5 4 4 3 3 3 3 2 2 2 2 2 1 2 3 4 3 3 2 2 2 2 2 2 2 3 4
3 3 2 2 1 0 0 1 1 2 2 2 3 3 3 4 4 4 4 3 3 3 3 3 2 2 2 2 1 1 1 3 3 3 2 2 2 2 2 1 2 2 3
5 3 2 2 1 0 0 1 1 0 1 2 2 2 3 3 3 3 4 3 3 2 3 4 2 2 2 2 2 2 2 2 2 4 3 2 3 2 2 2 1 2 2
4 4 3 2 1 1 0 1 0 1 1 2 2 2 3 3 3 4 3 3 3 2 3 3 3 3 2 2 2 2 2 2 2 3 5 4 3 2 2 2 1 1 2
3 3 3 2 2 2 1 1 1 2 2 2 2 2 2 2 2 3 3 3 3 3 3 3 3 3 3 3 2 2 2 2 2 2 4 4 4 3 2 1 1 1 2
Wind_Direction
159 164 149 137 132 128 123 119 116 112 108 106 105 104 103 102 101 99 100 106 108 107 107 104 98 99 99 97 95 93 94 93 91 89 85 86 91 93 93 94 86 82 83
155 157 147 137 134 132 127 122 120 118 115 111 110 108 106 105 104 103 104 105 105 105 104 106 103 100 100 102 102 101 103 102 99 93 87 85 89 96 99 96 97 95 91
137 140 140 134 131 132 129 125 123 122 119 117 116 114 111 109 107 104 105 106 103 97 102 104 104 105 104 107 109 111 112 115 114 107 100 98 99 104 106 103 101 101 100
133 133 134 130 129 132 131 128 126 124 122 121 120 121 119 116 112 110 107 102 98 94 101 107 107 114 115 120 123 125 119 119 134 135 134 141 137 125 120 117 114 111 107
119 126 132 130 126 128 131 129 127 126 124 123 121 119 121 121 122 120 118 111 107 105 109 119 124 124 142 153 155 140 69 108 117 140 152 171 174 156 147 142 139 131 126
109 116 127 126 124 122 124 129 128 127 126 125 126 125 126 126 129 129 128 127 126 127 132 145 157 175 195 212 224 255 289 281 293 163 166 182 188 182 173 166 159 157 156
108 110 122 120 120 118 117 119 127 129 130 129 132 137 135 135 139 145 150 155 161 173 177 188 208 223 239 248 256 266 274 279 232 192 196 202 202 196 189 182 180 183 182
110 103 113 117 116 116 117 116 116 125 130 131 134 142 146 149 156 169 180 185 192 201 209 220 232 243 256 262 270 279 279 265 235 213 215 219 216 210 206 200 197 198 200
97 93 89 97 107 113 113 114 116 117 122 129 131 131 138 144 166 199 212 214 216 218 225 232 240 250 259 265 270 279 282 266 237 234 238 227 224 224 220 214 211 211 213
84 82 78 79 87 99 102 107 103 105 100 97 115 111 107 136 189 205 230 241 239 236 238 243 248 255 263 266 269 274 279 271 249 240 240 235 232 233 229 223 220 220 222
71 69 70 67 65 75 93 86 85 90 80 71 64 98 89 40 320 238 259 265 257 257 256 256 259 262 268 269 271 272 271 263 249 240 239 240 238 237 235 232 228 227 229
86 70 69 67 60 60 65 63 60 59 53 45 35 34 28 17 335 301 278 280 283 276 275 274 273 272 270 274 276 275 265 259 247 246 243 241 237 240 241 237 233 232 232
111 82 62 66 62 58 52 53 52 48 43 38 33 23 21 17 7 356 343 315 307 302 303 295 287 279 270 270 275 275 270 263 248 249 249 242 238 242 244 240 237 234 233
101 85 64 58 58 53 53 47 52 47 38 31 23 25 38 31 19 5 340 313 307 296 293 291 280 277 274 272 269 273 276 270 256 252 249 246 245 245 247 244 242 241 240
102 87 65 62 62 55 53 41 43 39 34 23 17 15 29 43 9 6 345 329 309 301 290 285 283 277 274 275 273 271 271 263 260 255 255 251 248 246 248 248 247 245 246
115 99 69 63 61 63 63 53 42 33 28 24 18 7 9 20 19 3 352 342 328 313 298 288 283 278 274 272 273 274 266 262 257 252 255 254 252 251 252 254 253 251 250
130 112 89 84 63 59 54 45 40 33 37 29 17 12 11 14 17 18 359 337 327 323 319 314 307 304 299 297 288 281 275 268 268 259 258 256 255 254 255 261 261 257 255
124 107 68 66 61 54 53 41 35 33 38 28 21 21 20 19 23 28 12 332 330 335 338 323 318 315 310 304 292 288 282 273 267 262 259 255 250 252 254 258 262 260 259
127 120 88 63 55 42 47 46 44 41 36 27 25 26 20 14 12 15 8 343 340 347 341 322 329 310 301 300 290 285 282 273 267 268 258 257 255 254 252 254 256 259 261
118 114 109 74 50 48 47 42 34 31 22 23 23 17 15 8 5 6 359 348 352 339 326 317 307 306 290 289 294 295 287 279 271 264 258 260 265 263 256 249 253 259 261
118 106 108 95 49 47 40 42 31 358 346 1 9 6 8 8 4 7 360 345 345 328 313 313 306 301 303 306 309 310 300 288 286 270 261 262 281 274 262 253 256 264 271
157 167 170 154 114 54 40 146 201 239 295 317 346 359 5 5 359 357 359 337 337 329 324 320 311 296 289 307 296 309 314 316 303 288 278 266 281 296 285 269 263 268 273
185 196 200 209 202 240 11 46 33 28 6 2 356 349 349 356 357 354 349 343 334 329 315 304 292 270 278 286 267 227 262 269 305 298 287 288 296 295 288 283 274 277 280
208 204 210 213 207 210 98 89 83 64 275 281 305 314 325 344 348 351 347 343 334 327 318 310 305 278 256 270 279 260 244 233 263 296 303 304 306 294 288 300 313 317 310
195 190 206 209 223 225 162 159 158 257 254 279 304 318 327 333 344 349 346 344 334 322 310 310 310 294 264 251 254 261 260 258 233 246 284 302 303 288 298 295 313 326 318
183 192 204 206 232 233 218 221 217 241 259 283 297 302 313 316 326 337 340 335 322 314 303 301 298 295 283 269 258 243 235 239 240 239 262 285 290 287 290 283 293 305 309
Height
1532 1534 1536 1537 1539 1540 1541 1542 1542 1543 1543 1544 1544 1544 1545 1545 1545 1545 1545 1545 1545 1545 1545 1544 1544 1544 1544 1544 1544 1544 1544 1544 1544 1543 1543 1543 1543 1543 1543 1542 1542 1542 1542
1531 1533 1535 1537 1538 1540 1541 1542 1543 1543 1544 1544 1545 1545 1545 1545 1545 1545 1545 1545 1545 1545 1545 1545 1545 1545 1545 1545 1545 1545 1545 1544 1544 1544 1544 1544 1544 1543 1543 1543 1543 1543 1542
1531 1533 1535 1537 1538 1539 1541 1542 1542 1543 1544 1544 1545 1545 1545 1546 1546 1546 1546 1546 1546 1545 1545 1545 1545 1545 1545 1545 1545 1545 1545 1545 1545 1545 1545 1544 1544 1544 1544 1543 1543 1543 1543
1531 1533 1535 1537 1538 1539 1540 1541 1542 1543 1544 1544 1545 1545 1545 1546 1546 1546 1546 1546 1546 1546 1545 1545 1545 1545 1545 1545 1546 1545 1545 1545 1545 1545 1545 1545 1544 1544 1544 1544 1543 1543 1543
1532 1533 1535 1537 1538 1539 1540 1541 1542 1543 1543 1544 1544 1545 1545 1545 1545 1546 1546 1546 1545 1545 1545 1545 1545 1545 1545 1545 1546 1545 1545 1545 1545 1545 1545 1545 1544 1544 1544 1544 1544 1543 1543
1531 1533 1535 1536 1537 1539 1539 1540 1541 1542 1543 1543 1544 1544 1545 1545 1545 1545 1545 1545 1545 1545 1545 1545 1545 1545 1545 1545 1545 1545 1545 1545 1545 1545 1544 1544 1544 1544 1544 1543 1543 1543 1543
1531 1533 1535 1536 1537 1538 1539 1540 1541 1541 1542 1543 1543 1544 1544 1544 1544 1544 1544 1544 1544 1544 1544 1544 1544 1544 1544 1544 1544 1544 1544 1544 1544 1544 1544 1544 1544 1543 1543 1543 1543 1542 1542
1531 1533 1534 1536 1537 1538 1538 1539 1540 1541 1541 1542 1542 1543 1543 1543 1543 1543 1543 1543 1543 1543 1543 1543 1543 1543 1543 1543 1543 1543 1543 1543 1543 1543 1543 1543 1543 1543 1542 1542 1542 1542 1541
1532 1533 1534 1535 1536 1537 1538 1538 1539 1539 1540 1541 1541 1542 1542 1542 1542 1542 1542 1542 1542 1542 1542 1542 1542 1542 1542 1542 1542 1542 1542 1542 1542 1542 1542 1542 1542 1542 1541 1541 1541 1540 1540
1532 1533 1534 1535 1536 1536 1537 1537 1538 1538 1539 1539 1540 1540 1540 1540 1541 1541 1540 1540 1540 1540 1540 1540 1540 1540 1540 1540 1540 1540 1540 1540 1540 1540 1540 1540 1540 1540 1540 1539 1539 1539 1538
1531 1532 1533 1534 1534 1535 1536 1536 1537 1537 1538 1538 1538 1539 1539 1539 1539 1539 1539 1539 1539 1538 1538 1538 1538 1538 1538 1538 1538 1538 1538 1538 1538 1538 1538 1538 1538 1538 1538 1538 1537 1537 1537
1530 1532 1533 1533 1533 1534 1535 1535 1535 1536 1536 1537 1537 1537 1537 1537 1537 1537 1537 1537 1537 1536 1536 1536 1536 1536 1535 1535 1536 1536 1536 1536 1536 1536 1536 1536 1536 1536 1536 1536 1535 1535 1535
1530 1531 1532 1533 1533 1533 1533 1534 1534 1535 1535 1535 1535 1535 1535 1535 1535 1535 1535 1535 1534 1534 1534 1534 1533 1533 1533 1533 1533 1533 1533 1533 1533 1533 1533 1533 1533 1533 1533 1533 1533 1532 1532
1530 1530 1531 1532 1532 1532 1533 1533 1533 1533 1533 1533 1533 1533 1533 1533 1533 1532 1532 1532 1532 1532 1531 1531 1531 1531 1531 1530 1530 1530 1530 1530 1530 1530 1530 1530 1530 1530 1530 1530 1530 1529 1529
1529 1530 1530 1530 1531 1531 1531 1531 1531 1532 1531 1531 1531 1531 1531 1531 1530 1530 1530 1530 1529 1529 1529 1528 1528 1528 1528 1527 1527 1527 1527 1527 1527 1527 1526 1527 1527 1527 1527 1527 1526 1526 1526
1529 1529 1529 1530 1530 1530 1530 1530 1530 1530 1530 1529 1529 1529 1529 1528 1528 1527 1527 1527 1527 1526 1526 1526 1525 1525 1524 1524 1524 1523 1523 1523 1523 1523 1523 1523 1523 1523 1523 1523 1523 1522 1522
1528 1529 1529 1529 1529 1529 1529 1529 1528 1528 1528 1527 1527 1527 1526 1526 1526 1525 1525 1524 1524 1524 1523 1523 1522 1522 1521 1521 1520 1520 1520 1519 1519 1519 1519 1519 1519 1519 1519 1518 1518 1518 1518
1528 1528 1528 1528 1528 1528 1527 1527 1527 1526 1526 1526 1525 1525 1525 1524 1524 1523 1522 1522 1521 1521 1520 1520 1519 1519 1518 1517 1517 1516 1516 1515 1515 1515 1515 1515 1514 1514 1514 1514 1514 1514 1514
1527 1527 1527 1527 1527 1527 1526 1526 1525 1525 1524 1524 1524 1523 1522 1522 1521 1521 1520 1519 1519 1518 1517 1517 1516 1515 1515 1514 1513 1512 1512 1511 1511 1511 1510 1510 1510 1510 1509 1509 1509 1509 1509
1526 1526 1526 1526 1526 1526 1525 1525 1524 1523 1523 1522 1522 1521 1520 1520 1519 1518 1518 1517 1516 1515 1514 1513 1513 1512 1511 1511 1510 1509 1508 1507 1507 1507 1506 1506 1506 1506 1505 1505 1505 1504 1504
1525 1525 1525 1525 1525 1524 1524 1523 1522 1522 1521 1520 1520 1519 1518 1517 1517 1516 1515 1514 1513 1512 1511 1511 1510 1509 1508 1508 1506 1505 1504 1503 1503 1503 1502 1502 1502 1502 1501 1501 1500 1500 1499
1523 1524 1523 1524 1523 1523 1522 1522 1521 1520 1519 1519 1518 1517 1516 1515 1515 1513 1512 1512 1511 1510 1509 1508 1507 1506 1505 1505 1504 1502 1500 1500 1499 1499 1499 1498 1498 1497 1497 1497 1496 1496 1495
1522 1522 1522 1522 1522 1521 1520 1520 1519 1518 1518 1517 1516 1515 1514 1513 1513 1511 1510 1510 1509 1507 1506 1505 1504 1503 1502 1502 1501 1501 1500 1497 1496 1495 1495 1495 1494 1494 1493 1493 1492 1491 1491
1520 1520 1520 1520 1520 1519 1518 1518 1517 1516 1515 1515 1514 1513 1512 1511 1510 1509 1508 1507 1506 1505 1503 1502 1501 1500 1499 1498 1498 1498 1498 1497 1496 1492 1491 1491 1490 1490 1489 1489 1488 1487 1486
1518 1518 1519 1518 1518 1517 1516 1516 1515 1514 1513 1513 1512 1511 1510 1509 1508 1506 1505 1504 1503 1502 1501 1499 1498 1497 1496 1495 1495 1494 1494 1493 1493 1492 1488 1486 1486 1486 1485 1484 1484 1483 1482
1516 1516 1516 1516 1516 1515 1514 1513 1512 1512 1511 1510 1509 1508 1507 1506 1505 1504 1503 1501 1500 1499 1497 1496 1495 1494 1493 1492 1491 1491 1490 1489 1488 1488 1486 1483 1482 1481 1481 1480 1480 1479 1478